| time (UTC) | temp F | wind direction | speed knots | gust knots | rain 1hr in | rain 24hr in | rain mn in | humidity % | barometer mb |
| 20260510091549 | 65 | 9 | 2.6 | 7.0 | 0.00 | 0.66 | 0.00 | 67 | 1010.8 |
| 20260510090039 | 64 | 101 | 2.6 | 7.0 | 0.00 | 0.66 | 0.00 | 69 | 1010.8 |
| 20260510084538 | 63 | 5 | 1.7 | 7.8 | 0.00 | 0.66 | 0.00 | 71 | 1010.8 |
| 20260510083043 | 62 | 0 | 0.0 | 9.6 | 0.00 | 0.66 | 0.00 | 76 | 1010.8 |
| 20260510081548 | 62 | 124 | 0.9 | 3.5 | 0.00 | 0.66 | 0.00 | 75 | 1010.8 |
| 20260510080042 | 61 | 0 | 0.0 | 1.7 | 0.00 | 0.66 | 0.00 | 79 | 1010.8 |
| 20260510074540 | 60 | 0 | 0.0 | 0.0 | 0.00 | 0.66 | 0.00 | 86 | 1010.8 |
| 20260510073104 | 59 | 0 | 0.0 | 0.0 | 0.00 | 0.66 | 0.00 | 92 | 1010.8 |
| 20260510071553 | 56 | 0 | 0.0 | 0.0 | 0.00 | 0.66 | 0.00 | 96 | 1010.7 |
| 20260510070045 | 53 | 0 | 0.0 | 0.0 | 0.00 | 0.66 | 0.00 | 96 | 1010.9 |
| 20260510064556 | 52 | 0 | 0.0 | 0.0 | 0.00 | 0.66 | 0.00 | 97 | 1010.8 |
| 20260510063046 | 51 | 0 | 0.0 | 0.0 | 0.00 | 0.66 | 0.00 | 98 | 1010.6 |
| 20260510061540 | 50 | 0 | 0.0 | 0.0 | 0.00 | 0.66 | 0.00 | 98 | 1010.5 |
| 20260510060039 | 47 | 0 | 0.0 | 0.0 | 0.00 | 0.66 | 0.00 | 98 | 1010.5 |
| 20260510054544 | 47 | 0 | 0.0 | 0.0 | 0.00 | 0.66 | 0.00 | 98 | 1010.7 |
| 20260510053042 | 47 | 0 | 0.0 | 0.0 | 0.00 | 0.66 | 0.00 | 98 | 1010.6 |
| 20260510051554 | 46 | 0 | 0.0 | 0.0 | 0.00 | 0.66 | 0.00 | 98 | 1010.7 |
| 20260510050043 | 47 | 0 | 0.0 | 0.0 | 0.00 | 0.66 | 0.00 | 97 | 1010.6 |
| 20260510044548 | 47 | 0 | 0.0 | 0.0 | 0.00 | 0.66 | 0.00 | 97 | 1010.8 |
| 20260510043053 | 47 | 0 | 0.0 | 0.0 | 0.00 | 0.66 | 0.00 | 97 | 1010.8 |
| 20260510041548 | 47 | 0 | 0.0 | 0.0 | 0.00 | 0.66 | 0.00 | 97 | 1010.6 |
| 20260510040050 | 47 | 0 | 0.0 | 0.0 | 0.00 | 0.66 | 0.00 | 97 | 1010.4 |
| 20260510034543 | 48 | 0 | 0.0 | 0.0 | 0.00 | 0.66 | 0.00 | 97 | 1010.6 |
| 20260510033045 | 48 | 0 | 0.0 | 0.0 | 0.00 | 0.66 | 0.00 | 97 | 1010.7 |
| 20260510031553 | 48 | 0 | 0.0 | 0.0 | 0.00 | 0.66 | 0.00 | 97 | 1010.8 |
| 20260510030044 | 49 | 0 | 0.0 | 0.0 | 0.00 | 0.66 | 0.00 | 97 | 1011.0 |
| 20260510024548 | 49 | 0 | 0.0 | 0.0 | 0.00 | 0.66 | 0.00 | 97 | 1011.2 |
| 20260510023042 | 49 | 0 | 0.0 | 0.0 | 0.00 | 0.65 | 0.00 | 97 | 1011.2 |
| 20260510021543 | 49 | 0 | 0.0 | 0.0 | 0.00 | 0.65 | 0.00 | 97 | 1011.1 |
| 20260510020049 | 50 | 0 | 0.0 | 0.0 | 0.00 | 0.65 | 0.00 | 97 | 1011.0 |
| 20260510014540 | 50 | 0 | 0.0 | 0.0 | 0.00 | 0.65 | 0.00 | 97 | 1011.0 |
| 20260510013038 | 51 | 0 | 0.0 | 0.0 | 0.00 | 0.65 | 0.00 | 97 | 1010.9 |
| 20260510011546 | 51 | 0 | 0.0 | 0.0 | 0.00 | 0.65 | 0.00 | 97 | 1011.0 |
| 20260510010038 | 51 | 0 | 0.0 | 0.0 | 0.00 | 0.65 | 0.00 | 97 | 1011.1 |
| 20260510004542 | 52 | 0 | 0.0 | 0.0 | 0.00 | 0.65 | 0.00 | 97 | 1011.1 |
| 20260510003047 | 53 | 0 | 0.0 | 0.0 | 0.00 | 0.65 | 0.00 | 97 | 1011.3 |
| 20260510001539 | 53 | 0 | 0.0 | 0.0 | 0.00 | 0.65 | 0.00 | 97 | 1011.5 |
| 20260510000040 | 54 | 0 | 0.0 | 0.0 | 0.00 | 0.65 | 0.00 | 97 | 1011.6 |
| 20260509234539 | 54 | 0 | 0.0 | 0.0 | 0.00 | 0.65 | 0.00 | 97 | 1011.8 |
| 20260509233048 | 54 | 0 | 0.0 | 0.0 | 0.00 | 0.65 | 0.00 | 97 | 1012.1 |
| 20260509231542 | 54 | 0 | 0.0 | 0.0 | 0.00 | 0.65 | 0.00 | 97 | 1012.0 |
| 20260509230043 | 54 | 0 | 0.0 | 0.0 | 0.00 | 0.65 | 0.00 | 97 | 1012.1 |
| 20260509224550 | 54 | 0 | 0.0 | 0.0 | 0.00 | 0.65 | 0.00 | 97 | 1012.0 |
| 20260509223048 | 54 | 0 | 0.0 | 0.0 | 0.00 | 0.65 | 0.00 | 97 | 1012.2 |
| 20260509221600 | 54 | 0 | 0.0 | 0.0 | 0.00 | 0.65 | 0.00 | 97 | 1012.0 |
| 20260509220039 | 54 | 0 | 0.0 | 0.0 | 0.00 | 0.65 | 0.00 | 97 | 1012.0 |
| 20260509214548 | 54 | 0 | 0.0 | 0.0 | 0.00 | 0.65 | 0.65 | 97 | 1011.9 |
| 20260509213043 | 54 | 0 | 0.0 | 0.0 | 0.00 | 0.65 | 0.65 | 97 | 1012.0 |
| 20260509211539 | 54 | 0 | 0.0 | 0.0 | 0.00 | 0.65 | 0.65 | 97 | 1011.8 |
| 20260509210049 | 54 | 0 | 0.0 | 0.0 | 0.00 | 0.65 | 0.65 | 96 | 1011.7 |
| 20260509204547 | 54 | 0 | 0.0 | 0.0 | 0.00 | 0.65 | 0.65 | 96 | 1011.3 |
| 20260509203043 | 54 | 0 | 0.0 | 0.0 | 0.00 | 0.65 | 0.65 | 96 | 1011.2 |
| 20260509201556 | 54 | 0 | 0.0 | 0.0 | 0.00 | 0.65 | 0.65 | 96 | 1010.9 |
| 20260509200058 | 54 | 0 | 0.0 | 1.7 | 0.00 | 0.65 | 0.65 | 96 | 1011.0 |
| 20260509194550 | 54 | 0 | 0.0 | 0.0 | 0.00 | 0.65 | 0.65 | 96 | 1010.7 |
| 20260509193048 | 54 | 0 | 0.0 | 3.5 | 0.00 | 0.65 | 0.65 | 95 | 1010.3 |
| 20260509191546 | 54 | 103 | 1.7 | 5.2 | 0.01 | 0.65 | 0.65 | 95 | 1009.9 |
| 20260509190103 | 54 | 61 | 0.9 | 4.3 | 0.01 | 0.65 | 0.65 | 95 | 1009.7 |
| 20260509184551 | 55 | 35 | 1.7 | 4.3 | 0.01 | 0.65 | 0.65 | 95 | 1009.5 |
| 20260509183049 | 55 | 0 | 0.9 | 3.5 | 0.03 | 0.64 | 0.64 | 95 | 1009.5 |
| 20260509181545 | 55 | 132 | 1.7 | 5.2 | 0.07 | 0.63 | 0.63 | 95 | 1009.3 |
| 20260509180051 | 55 | 0 | 1.7 | 6.1 | 0.15 | 0.63 | 0.63 | 95 | 1008.9 |
| 20260509174550 | 55 | 0 | 0.9 | 7.0 | 0.23 | 0.63 | 0.63 | 95 | 1008.9 |
| 20260509173051 | 55 | 342 | 0.9 | 3.5 | 0.25 | 0.60 | 0.60 | 95 | 1009.4 |
| 20260509171548 | 56 | 0 | 0.0 | 0.9 | 0.33 | 0.55 | 0.55 | 95 | 1010.0 |
| 20260509170038 | 56 | 0 | 0.0 | 0.0 | 0.31 | 0.48 | 0.48 | 94 | 1010.6 |
| 20260509164551 | 56 | 0 | 0.0 | 0.0 | 0.27 | 0.40 | 0.40 | 94 | 1010.8 |
| 20260509163051 | 56 | 0 | 0.0 | 1.7 | 0.22 | 0.35 | 0.35 | 93 | 1011.1 |
| 20260509161556 | 56 | 113 | 0.0 | 4.3 | 0.11 | 0.22 | 0.22 | 92 | 1011.4 |
| 20260509160053 | 57 | 129 | 0.0 | 0.9 | 0.11 | 0.16 | 0.16 | 93 | 1011.3 |
| 20260509154550 | 57 | 342 | 0.0 | 0.9 | 0.12 | 0.12 | 0.12 | 92 | 1010.8 |
| 20260509153054 | 57 | 201 | 0.9 | 3.5 | 0.12 | 0.12 | 0.12 | 91 | 1009.3 |
| 20260509151548 | 57 | 339 | 1.7 | 6.1 | 0.11 | 0.11 | 0.11 | 90 | 1008.8 |
| 20260509150048 | 59 | 0 | 0.0 | 0.0 | 0.04 | 0.04 | 0.04 | 88 | 1009.1 |
| 20260509144547 | 60 | 0 | 0.0 | 0.0 | 0.00 | 0.00 | 0.00 | 83 | 1009.9 |
| 20260509143038 | 61 | 0 | 0.0 | 1.7 | 0.00 | 0.00 | 0.00 | 78 | 1010.5 |
| 20260509141544 | 62 | 153 | 0.9 | 3.5 | 0.00 | 0.00 | 0.00 | 74 | 1010.9 |
| 20260509140051 | 62 | 242 | 1.7 | 3.5 | 0.00 | 0.00 | 0.00 | 74 | 1011.1 |
| 20260509134623 | 62 | 286 | 1.7 | 5.2 | 0.00 | 0.00 | 0.00 | 74 | 1010.8 |
| 20260509133047 | 63 | 264 | 0.9 | 3.5 | 0.00 | 0.00 | 0.00 | 72 | 1010.6 |
| 20260509131551 | 63 | 0 | 0.0 | 1.7 | 0.00 | 0.00 | 0.00 | 72 | 1010.5 |
| 20260509130041 | 63 | 276 | 0.0 | 0.9 | 0.00 | 0.00 | 0.00 | 71 | 1010.2 |
| 20260509124543 | 63 | 0 | 0.0 | 2.6 | 0.00 | 0.00 | 0.00 | 72 | 1010.8 |
| 20260509123043 | 62 | 0 | 0.0 | 3.5 | 0.00 | 0.00 | 0.00 | 74 | 1010.9 |
| 20260509121550 | 62 | 285 | 0.0 | 5.2 | 0.00 | 0.00 | 0.00 | 74 | 1011.2 |
| 20260509120050 | 62 | 219 | 1.7 | 7.8 | 0.00 | 0.00 | 0.00 | 74 | 1011.7 |
| 20260509114548 | 63 | 196 | 4.3 | 9.6 | 0.00 | 0.00 | 0.00 | 73 | 1011.9 |
| 20260509113048 | 64 | 262 | 2.6 | 7.8 | 0.00 | 0.00 | 0.00 | 68 | 1012.0 |
| 20260509111544 | 64 | 179 | 2.6 | 7.0 | 0.00 | 0.00 | 0.00 | 69 | 1011.8 |
| 20260509110043 | 64 | 226 | 1.7 | 4.3 | 0.00 | 0.00 | 0.00 | 70 | 1011.9 |
| 20260509104540 | 64 | 0 | 0.0 | 4.3 | 0.00 | 0.00 | 0.00 | 73 | 1012.0 |
| 20260509103053 | 64 | 158 | 0.0 | 1.7 | 0.00 | 0.00 | 0.00 | 71 | 1011.9 |
| 20260509101553 | 64 | 208 | 0.0 | 3.5 | 0.00 | 0.00 | 0.00 | 71 | 1011.9 |
| 20260509100044 | 65 | 0 | 0.0 | 1.7 | 0.00 | 0.00 | 0.00 | 71 | 1012.0 |
| 20260509094544 | 64 | 107 | 0.0 | 3.5 | 0.00 | 0.00 | 0.00 | 71 | 1012.0 |
| 20260509093054 | 63 | 222 | 0.9 | 2.6 | 0.00 | 0.00 | 0.00 | 74 | 1011.8 |